Location: Brno
(49.2000°N, 16.6330°E)
Time: 14:58:40
(UTC+01:00)

Daily predictions for brighter satellites

Satellite Brightness Start Highest point End
(mag) Time Altitude Azimuth Time Altitude Azimuth Time Altitude Azimuth
SL-16 R/B 4.3 16:59:10 10° N 17:04:19 28° WNW 17:09:29 10° WSW
AQUARIUS 4.1 17:03:23 10° SSE 17:07:52 75° ENE 17:12:23 10° N
Cosmos 2369 Rocket 4.1 17:10:02 10° N 17:11:45 11° NNE 17:13:28 10° NE
ATLAS 3B R/B 4.1 17:05:49 10° WNW 17:12:09 29° NNW 17:18:13 10° NE
Cosmos 2237 Rocket 3.3 17:08:08 10° SSE 17:12:34 25° ESE 17:17:02 10° NE
COSMOS 2428 2.8 17:07:45 10° SSW 17:13:24 66° ESE 17:19:05 10° NNE
Cosmos 2237 4.3 17:12:39 10° SSW 17:18:22 84° ESE 17:24:08 10° NNE
SL-16 R/B 3.9 17:16:50 10° ESE 17:18:57 12° E 17:21:05 10° ENE
USA 215 3.3 17:13:02 10° ESE 17:19:34 74° NNE 17:26:07 10° NW
Cosmos 332 Rocket 4.1 17:15:03 10° S 17:19:41 48° ESE 17:24:23 10° NNE
Cosmos 1908 3.7 17:19:01 10° NNW 17:22:53 65° W 17:26:44 10° S
Cosmos 1455 4.0 17:21:34 10° NE 17:23:05 12° ENE 17:23:59 11° ENE
Cosmos 1766 Rocket 3.9 17:19:05 10° SSW 17:23:32 73° WNW 17:27:59 10° N
Cosmos 2297 4.2 17:18:53 10° NNW 17:24:10 37° NE 17:29:27 10° ESE
Cosmos 1674 2.7 17:24:12 10° S 17:28:02 89° E 17:31:55 10° N
NOSS 3-2 (A) 4.5 17:22:23 10° WSW 17:28:20 42° NNW 17:34:56 10° NE
Cosmos 2058 4.0 17:25:09 10° SE 17:28:23 23° E 17:31:38 10° NE
CZ-4 R/B 4.4 17:24:53 10° SSE 17:29:02 82° ENE 17:33:12 10° NNW
Cosmos 1763 Rocket 3.5 17:24:00 10° SSW 17:29:13 80° ESE 17:34:24 10° NNE
COSMO-SKYMED 1 3.3 17:26:44 10° NNE 17:30:42 33° E 17:34:37 10° SSE
Cosmos 372 Rocket 4.0 17:26:10 10° NNW 17:31:12 56° ENE 17:36:12 10° SE
NOSS 3-2 (C) 4.4 17:27:21 10° WSW 17:33:22 46° NNW 17:40:03 10° NE
MSX 3.9 17:28:45 10° SSE 17:34:28 84° WSW 17:40:15 10° NNW
Cosmos 44 4.3 17:29:57 10° S 17:34:33 32° ESE 17:38:11 14° ENE
Cosmos 1726 2.2 17:30:59 10° N 17:34:42 56° ENE 17:38:25 10° SSE
YAOGAN 1 3.0 17:30:53 10° S 17:35:11 69° WSW 17:39:32 10° NNW
Cosmos 1340 Rocket 4.1 17:33:00 10° SE 17:35:55 20° E 17:38:00 14° NE
Cosmos 1844 Rocket 3.7 17:30:51 10° NW 17:36:20 52° WSW 17:41:46 10° S
Resurs 01 Rocket 3.1 17:33:26 10° E 17:36:20 17° ENE 17:39:15 10° NNE
USA 116 3.2 17:33:21 10° NNE 17:36:39 85° WNW 17:39:46 10° SSW
ALOS 3.5 17:34:10 10° ESE 17:37:29 20° ENE 17:40:48 10° NNE
SL-14 R/B 3.8 17:36:39 10° SSE 17:40:18 38° E 17:44:01 10° NNE
Cosmos 1300 2.6 17:38:56 10° N 17:42:46 68° E 17:46:35 10° SSE
Cosmos 2228 Rocket 3.9 17:38:52 10° NNW 17:43:12 56° W 17:47:31 10° S
SL-16 R/B 4.1 17:39:17 10° W 17:43:44 23° NW 17:48:13 10° N
Cosmos 1484 Rocket 2.8 17:40:40 10° SSE 17:44:36 84° E 17:48:38 10° NNW
Cosmos 540 Rocket 3.9 17:40:01 10° S 17:44:52 42° ESE 17:49:41 10° NE
Aureole 2 Rocket 3.9 17:41:51 10° SSE 17:44:54 23° E 17:46:26 19° ENE
BREEZE-M DEB (TANK) 4.4 17:46:29 10° SSE 17:46:59 10° SE 17:47:21 10° SE
Cosmos 371 Rocket 3.2 17:44:26 10° S 17:49:11 66° ESE 17:53:58 10° NNE
Cosmos 2333 4.3 17:47:29 10° SSW 17:53:05 77° WNW 17:58:44 10° NNE
Meteor 2-10 3.9 17:51:51 10° N 17:56:56 69° ENE 18:02:06 10° SSE
Cosmos 2360 Rocket 3.6 17:52:09 10° WSW 17:57:16 35° NW 18:02:25 10° NNE
CENTAUR R/B 2.8 17:51:06 10° SW 17:57:22 75° NW 18:03:58 12° NE
Cosmos 1980 3.8 17:54:31 10° S 18:00:05 59° ESE 18:05:02 13° NE
Cosmos 2151 2.8 17:59:07 10° S 18:03:18 70° E 18:07:29 10° NNE
FENGYUN 3A 4.2 17:58:47 10° SE 18:03:35 34° ENE 18:08:24 10° N
Cosmos 1743 Rocket 4.4 18:01:45 10° SSW 18:06:09 54° WNW 18:10:33 10° N
Meteor 1-28 Rocket 3.2 18:04:48 15° NNE 18:07:45 52° E 18:11:23 10° S
Cosmos 1125 Rocket 4.3 18:04:10 10° NNW 18:09:16 54° WSW 18:14:18 10° S
Cosmos 44 Rocket 3.3 18:04:32 10° SW 18:09:40 84° SE 18:13:08 21° NE
Lacrosse 5 rocket 2.0 18:06:07 10° WNW 18:09:46 51° SW 18:13:36 10° SE
Cosmos 1634 Rocket 4.5 18:04:05 10° NNW 18:10:12 63° W 18:16:15 10° S
Thor Agena Rocket 4.1 18:06:05 10° N 18:11:17 61° WNW 18:16:23 10° SSW
DMSP B5D1-3 4.5 18:06:29 10° NNE 18:11:33 61° ESE 18:16:35 10° S
ATLAS 5 CENTAUR R/B 3.7 18:07:31 10° NW 18:11:41 21° NNE 18:13:40 18° NE
METEOR-M 4.1 18:06:30 10° SSE 18:11:49 68° ENE 18:17:09 10° N
Cosmos 1151 Rocket 3.9 18:11:57 10° NNW 18:16:06 51° W 18:20:15 10° S
Cosmos 2333 Rocket 2.1 18:10:43 10° SSW 18:16:23 88° ESE 18:21:18 14° NNE
SKYMED 2 3.6 18:14:33 10° NNE 18:18:56 84° WNW 18:23:16 10° SSW
NOSS 0 Rocket 3.9 18:14:13 10° SSW 18:20:26 85° ESE 18:25:43 15° NNE
Spot 2 Rocket 3.7 18:17:29 10° SE 18:22:15 44° ENE 18:27:02 10° N
Cosmos 2219 Rocket 2.4 18:17:15 10° SW 18:22:52 69° WNW 18:28:00 13° NNE
Lacrosse 5 2.9 18:18:15 10° WNW 18:22:55 35° N 18:25:04 25° NE
Cosmos 841 Rocket 4.5 18:19:41 10° SW 18:24:46 46° WNW 18:29:51 10° NNE
Cosmos 1805 Rocket 3.6 18:20:44 10° S 18:25:05 55° E 18:27:52 21° NNE
CZ-4C R/B 3.9 18:21:47 10° NW 18:26:58 25° NNE 18:29:26 21° NE
Cosmos 2278 Rocket 3.3 18:21:55 10° NW 18:27:20 46° WSW 18:32:43 10° S
FREGAT/IRIS 2.5 18:27:06 10° SSE 18:30:09 85° ENE 18:33:13 10° NNW
Cosmos 1943 Rocket 3.9 18:27:25 10° N 18:30:06 16° NNE 18:30:06 16° NNE
Cosmos 304 Rocket 3.9 18:26:23 10° S 18:31:03 52° ESE 18:32:26 39° ENE
Cosmos 1900 4.3 18:27:05 10° NW 18:32:03 83° SW 18:36:32 13° SSE
Cosmos 1538 Rocket 4.4 18:27:32 10° S 18:32:26 40° ESE 18:33:06 38° E
NOAA 12 4.2 18:27:26 10° S 18:32:41 78° WSW 18:37:59 10° NNW
BREEZE M DEB (TANK) 3.6 18:35:37 10° W 18:37:33 19° SW 18:37:59 18° SSW
Lacrosse 4 Rocket 1.8 18:37:18 10° NNW 18:40:36 43° NNE 18:40:36 43° NNE
SJ-6B 3.1 18:38:36 10° S 18:42:41 71° WSW 18:46:50 10° NNW
Sich 1 3.1 18:40:56 10° S 18:45:05 58° ESE 18:45:05 58° ESE
Cosmos 2084 3.7 18:45:43 10° WSW 18:49:27 50° NW 18:50:01 45° N
Cosmos 1633 Rocket 3.6 18:46:33 10° S 18:49:38 41° SSE 18:49:38 41° SSE
Cosmos 1703 3.2 18:47:51 10° SSW 18:51:44 79° W 18:52:25 59° N
Cosmos 2237 Rocket 2.6 18:50:37 10° SW 18:56:11 63° WNW 18:59:45 23° NNE
Cosmos 1626 3.0 18:53:53 10° S 18:56:25 42° SSW 18:56:25 42° SSW
Cosmos 2369 Rocket 3.1 18:52:30 10° NNW 18:56:36 32° NNE 18:56:36 32° NNE
COSMOS 2428 4.4 18:53:18 10° WSW 18:58:10 28° NW 19:02:51 11° NNE
Cosmos 1455 2.4 18:55:30 10° NNW 18:59:15 68° W 18:59:15 68° W
Cosmos 1461 3.9 18:57:21 10° SSW 18:59:57 34° S 18:59:57 34° S
SL-16 R/B 2.0 18:56:25 10° SSW 19:02:02 73° ESE 19:03:04 58° NE
USA 215 4.1 18:56:36 10° SSE 19:02:50 46° SW 19:09:06 10° WNW
ATLAS 3B R/B 3.9 18:59:18 10° NW 19:05:09 26° N 19:06:31 24° NNE
Cosmos 2058 4.4 19:01:22 10° SW 19:05:09 35° WNW 19:08:47 11° N
COSMO-SKYMED 1 4.4 19:03:00 10° N 19:06:48 30° WNW 19:10:35 10° SW
Aureole 1 Rocket 4.0 19:06:37 10° S 19:11:13 54° SE 19:11:13 54° SE
Cosmos 1340 Rocket 4.2 19:08:30 10° SW 19:12:11 37° WNW 19:13:42 26° NNW
Resurs 01 Rocket 1.9 19:10:33 35° S 19:12:20 68° WSW 19:16:48 10° NNW
ALOS 2.6 19:09:51 10° S 19:14:29 63° WSW 19:19:09 10° NNW
Cosmos 44 4.0 19:10:35 10° WSW 19:15:39 51° NW 19:16:39 44° N
Aureole 2 Rocket 4.1 19:16:38 10° SW 19:20:12 36° WNW 19:20:20 36° NW
Resurs 1-3 4.3 19:21:23 49° NW 19:21:23 49° NW 19:24:46 10° NNW
Cosmos 1666 Rocket 4.2 19:19:49 10° SSW 19:23:49 53° W 19:23:49 53° W
Nadezhda 4 Rocket 4.2 19:18:51 10° SSW 19:25:06 70° WNW 19:31:27 10° N
Cosmos 1092 Rocket 4.2 19:37:53 10° SSW 19:44:12 69° WNW 19:50:33 10° N
USA 229 DEB 4.2 19:39:48 10° SSW 19:44:36 46° S 19:44:36 46° S
USA 229 4.2 19:39:55 10° SSW 19:44:39 45° S 19:44:39 45° S
CENTAUR R/B 4.0 19:43:23 10° W 19:49:15 32° NNW 19:51:09 28° N
ATLAS 5 CENTAUR R/B 3.6 19:52:14 10° NW 19:55:14 29° NNW 19:55:14 29° NNW
Cosmos 2333 Rocket 4.2 19:57:03 10° W 20:01:25 22° NW 20:03:19 19° NNW
Lacrosse 5 3.8 20:02:03 10° NW 20:04:17 24° NW 20:04:17 24° NW
Cosmos 2219 Rocket 4.4 20:04:09 10° WNW 20:07:55 18° NW 20:09:46 16° NNW
Cosmos 1943 Rocket 4.3 20:10:13 10° NNW 20:11:38 18° NNW 20:11:38 18° NNW
CZ-4C R/B 3.8 20:10:39 10° NW 20:14:38 34° NNW 20:14:38 34° NNW
Cosmos 2369 Rocket 4.3 20:36:27 10° NW 20:38:25 22° NW 20:38:25 22° NW
SL-16 R/B 4.3 20:42:04 10° W 20:45:01 22° WNW 20:45:01 22° WNW
ATLAS 3B R/B 4.4 20:50:51 10° NW 20:53:46 25° NNW 20:53:46 25° NNW
